SV4RJB-13 Weather Reports


time (UTC)temp
C
wind
direction
speed
KPH
gust
KPH
rain 1hr
cm
rain 24hr
cm
rain mn
cm
humidity
%
barometer
mb
20260906072911 32 0.0 0.0 0.00 0.00 0.00 35 1006.8
20260906070912 28 0.0 0.0 0.00 0.00 0.00 40 1006.6
20260906065913 27 0.0 0.0 0.00 0.00 0.00 42 1006.5
20260906064913 27 0.0 0.0 0.00 0.00 0.00 42 1006.6
20260906063912 27 0.0 0.0 0.00 0.00 0.00 42 1006.5
20260906062913 27 0.0 0.0 0.00 0.00 0.00 42 1006.4
20260906061911 28 0.0 0.0 0.00 0.00 0.00 38 1006.2
20260906055913 31 0.0 0.0 0.00 0.00 0.00 36 1006.0
20260906054912 28 0.0 0.0 0.00 0.00 0.00 40 1005.9
20260906052911 25 0.0 0.0 0.00 0.00 0.00 48 1006.0
20260906050912 22 0.0 0.0 0.00 0.00 0.00 56 1006.0
20260906045913 22 0.0 0.0 0.00 0.00 0.00 55 1005.9
20260906044913 21 0.0 0.0 0.00 0.00 0.00 55 1005.8
20260906043913 21 0.0 0.0 0.00 0.00 0.00 57 1005.6
20260906042913 20 0.0 0.0 0.00 0.00 0.00 60 1005.6
20260906041912 20 0.0 0.0 0.00 0.00 0.00 60 1005.5
20260906040912 20 0.0 0.0 0.00 0.00 0.00 60 1005.3
20260906035912 21 0.0 0.0 0.00 0.00 0.00 57 1005.3
20260906034912 22 0.0 0.0 0.00 0.00 0.00 55 1005.3
20260906033912 21 0.0 0.0 0.00 0.00 0.00 56 1005.1
20260906031912 23 0.0 0.0 0.00 0.00 0.00 52 1005.2
20260906030911 23 0.0 0.0 0.00 0.00 0.00 52 1005.1
20260906024911 22 0.0 0.0 0.00 0.00 0.00 54 1005.0
20260906022913 21 0.0 0.0 0.00 0.00 0.00 57 1004.8
20260906021912 21 0.0 0.0 0.00 0.00 0.00 58 1004.9
20260906015912 21 0.0 0.0 0.00 0.00 0.00 57 1005.0
20260906014913 22 0.0 0.0 0.00 0.00 0.00 56 1004.9
20260906013912 22 0.0 0.0 0.00 0.00 0.00 53 1004.8
20260906011912 22 0.0 0.0 0.00 0.00 0.00 53 1004.8
20260906010912 23 0.0 0.0 0.00 0.00 0.00 54 1004.9
20260906005912 23 0.0 0.0 0.00 0.00 0.00 53 1004.9
20260906004912 22 0.0 0.0 0.00 0.00 0.00 55 1004.9
20260906003913 22 0.0 0.0 0.00 0.00 0.00 58 1004.8
20260906002912 22 0.0 0.0 0.00 0.00 0.00 55 1004.8
20260906001912 25 0.0 0.0 0.00 0.00 0.00 49 1005.0
20260905235912 24 0.0 0.0 0.00 0.00 0.00 52 1005.0
20260905234912 24 0.0 0.0 0.00 0.00 0.00 52 1005.0
20260905233912 23 0.0 0.0 0.00 0.00 0.00 53 1005.0
20260905232912 23 0.0 0.0 0.00 0.00 0.00 52 1004.0
20260905231913 22 0.0 0.0 0.00 0.00 0.00 56 1005.0
20260905230912 25 0.0 0.0 0.00 0.00 0.00 51 1005.1
20260905225912 23 0.0 0.0 0.00 0.00 0.00 55 1005.2
20260905224912 23 0.0 0.0 0.00 0.00 0.00 55 1005.1
20260905223912 23 0.0 0.0 0.00 0.00 0.00 57 1005.1
20260905222914 23 0.0 0.0 0.00 0.00 0.00 55 1005.0
20260905221914 25 0.0 0.0 0.00 0.00 0.00 49 1005.1
20260905220913 26 0.0 0.0 0.00 0.00 0.00 48 1005.2
20260905215913 26 0.0 0.0 0.00 0.00 0.00 48 1005.2
20260905214912 25 0.0 0.0 0.00 0.00 0.00 48 1005.2
20260905213913 25 0.0 0.0 0.00 0.00 0.00 51 1005.2
20260905212912 25 0.0 0.0 0.00 0.00 0.00 51 1005.3
20260905211912 25 0.0 0.0 0.00 0.00 0.00 51 1005.2
20260905210912 27 0.0 0.0 0.00 0.00 0.00 46 1005.1
20260905205913 26 0.0 0.0 0.00 0.00 0.00 48 1005.1
20260905204912 25 0.0 0.0 0.00 0.00 0.00 50 1005.0
20260905203911 24 0.0 0.0 0.00 0.00 0.00 51 1005.1
20260905202912 25 0.0 0.0 0.00 0.00 0.00 50 1005.1
20260905201913 25 0.0 0.0 0.00 0.00 0.00 47 1005.0
20260905200913 25 0.0 0.0 0.00 0.00 0.00 44 1004.3
20260905195912 26 0.0 0.0 0.00 0.00 0.00 43 1005.1
20260905194913 27 0.0 0.0 0.00 0.00 0.00 41 1004.9
20260905193912 27 0.0 0.0 0.00 0.00 0.00 41 1005.1
20260905192912 27 0.0 0.0 0.00 0.00 0.00 40 1004.9
20260905191913 27 0.0 0.0 0.00 0.00 0.00 40 1004.9
20260905190913 27 0.0 0.0 0.00 0.00 0.00 42 1004.9
20260905185912 27 0.0 0.0 0.00 0.00 0.00 43 1004.9
20260905183913 27 0.0 0.0 0.00 0.00 0.00 41 1004.6
20260905182912 28 0.0 0.0 0.00 0.00 0.00 42 1004.4
20260905181912 28 0.0 0.0 0.00 0.00 0.00 41 1004.5
20260905180913 28 0.0 0.0 0.00 0.00 0.00 40 1004.1
20260905175912 29 0.0 0.0 0.00 0.00 0.00 38 1004.1
20260905173912 30 0.0 0.0 0.00 0.00 0.00 36 1003.7
20260905172911 30 0.0 0.0 0.00 0.00 0.00 36 1003.6
20260905170912 31 0.0 0.0 0.00 0.00 0.00 31 1003.3
20260905165912 31 0.0 0.0 0.00 0.00 0.00 32 1003.3
20260905164912 31 0.0 0.0 0.00 0.00 0.00 32 1003.3
20260905162913 32 0.0 0.0 0.00 0.00 0.00 31 1003.3
20260905161914 32 0.0 0.0 0.00 0.00 0.00 30 1003.2
20260905160914 32 0.0 0.0 0.00 0.00 0.00 29 1003.3
20260905155914 32 0.0 0.0 0.00 0.00 0.00 29 1003.4
20260905154913 32 0.0 0.0 0.00 0.00 0.00 28 1003.4
20260905153912 32 0.0 0.0 0.00 0.00 0.00 27 1003.4
20260905150913 32 0.0 0.0 0.00 0.00 0.00 27 1003.5
20260905145912 32 0.0 0.0 0.00 0.00 0.00 27 1003.5
20260905143912 32 0.0 0.0 0.00 0.00 0.00 27 1003.5
20260905142913 33 0.0 0.0 0.00 0.00 0.00 27 1003.5
20260905141914 33 0.0 0.0 0.00 0.00 0.00 27 1003.6
20260905140913 33 0.0 0.0 0.00 0.00 0.00 27 1003.7
20260905135913 33 0.0 0.0 0.00 0.00 0.00 27 1003.8
20260905134913 33 0.0 0.0 0.00 0.00 0.00 26 1003.9
20260905133913 33 0.0 0.0 0.00 0.00 0.00 26 1004.1
20260905132914 34 0.0 0.0 0.00 0.00 0.00 26 1004.2
20260905131912 35 0.0 0.0 0.00 0.00 0.00 25 1004.3
20260905125913 34 0.0 0.0 0.00 0.00 0.00 26 1004.5
20260905124912 33 0.0 0.0 0.00 0.00 0.00 26 1004.5
20260905122913 35 0.0 0.0 0.00 0.00 0.00 24 1004.8
20260905121913 34 0.0 0.0 0.00 0.00 0.00 25 1005.0
20260905120913 35 0.0 0.0 0.00 0.00 0.00 25 1005.3
20260905115912 35 0.0 0.0 0.00 0.00 0.00 25 1005.3
20260905114912 34 0.0 0.0 0.00 0.00 0.00 25 1005.4
20260905113911 34 0.0 0.0 0.00 0.00 0.00 25 1005.6
20260905111912 33 0.0 0.0 0.00 0.00 0.00 27 1005.7
20260905110913 33 0.0 0.0 0.00 0.00 0.00 27 1005.6
20260905105913 33 0.0 0.0 0.00 0.00 0.00 27 1005.7
20260905104912 35 0.0 0.0 0.00 0.00 0.00 26 1005.9
20260905102912 33 0.0 0.0 0.00 0.00 0.00 29 1006.0
20260905101912 33 0.0 0.0 0.00 0.00 0.00 28 1006.2
20260905100913 33 0.0 0.0 0.00 0.00 0.00 28 1006.4
20260905095912 35 0.0 0.0 0.00 0.00 0.00 27 1006.4
20260905094912 36 0.0 0.0 0.00 0.00 0.00 25 1006.5
20260905093913 36 0.0 0.0 0.00 0.00 0.00 26 1006.6
20260905092913 35 0.0 0.0 0.00 0.00 0.00 28 1006.7
20260905091912 34 0.0 0.0 0.00 0.00 0.00 29 1006.6
20260905090912 35 0.0 0.0 0.00 0.00 0.00 29 1006.4
20260905085913 36 0.0 0.0 0.00 0.00 0.00 27 1007.0
20260905084913 36 0.0 0.0 0.00 0.00 0.00 28 1006.9
20260905083912 35 0.0 0.0 0.00 0.00 0.00 27 1007.1
20260905082913 32 0.0 0.0 0.00 0.00 0.00 31 1007.3
20260905081913 35 0.0 0.0 0.00 0.00 0.00 30 1007.3
20260905080912 33 0.0 0.0 0.00 0.00 0.00 31 1007.3
20260905075913 33 0.0 0.0 0.00 0.00 0.00 30 1007.3
20260905074912 30 0.0 0.0 0.00 0.00 0.00 34 1007.3
20260905073912 32 0.0 0.0 0.00 0.00 0.00 33 1007.2